Regional Weather Roundup
Issued by NWS

Home | Current Version | Previous Version | Text Only | Print | Product List | Glossary Off
Versions: 1 2 3 4 5 6 7 8 9 10 11 12 13 14 15 16 17 18 19 20 21 22 23 24 25 26 27 28 29 30 31 32 33 34 35 36 37 38 39 40 41 42 43 44 45 46 47 48 49 50

000
ASUS43 KLOT 261712
RWRIL

ILLINOIS REGIONAL WEATHER ROUNDUP
NATIONAL WEATHER SERVICE CHICAGO/ROMEOVILLE IL
1200 PM CDT TUE MAY 26 2015

NOTE: "FAIR" INDICATES FEW OR NO CLOUDS BELOW 12,000 FEET WITH NO
SIGNIFICANT WEATHER AND/OR OBSTRUCTIONS TO VISIBILITY.

* THESE STATIONS ARE NOT UNDER NWS QUALITY CONTROL. THEY ALSO MAY NOT
  REPORT WEATHER SUCH AS PRECIPITATION OR FOG.

ILZ001-002-007-009-015-016-024-261800-
NORTHWEST ILLINOIS

CITY           SKY/WX    TMP DP  RH WIND       PRES   REMARKS
MOLINE         PTSUNNY   73  63  70 SW20G30   29.73F
STERLING*      CLOUDY    72  66  83 SW7       29.77R
SAVANNA*       CLOUDY    70  66  89 S14       29.74S
$$

ILZ003-004-008-010-011-017-018-261800-
NORTH CENTRAL ILLINOIS

CITY           SKY/WX    TMP DP  RH WIND       PRES   REMARKS
ROCKFORD       LGT RAIN  70  65  84 S10       29.75F
FREEPORT*      LGT RAIN  68  66  94 S20G28    29.77R
ROCHELLE*      LGT RAIN  68  65  89 S25G39    29.77S
DE KALB*       RAIN      66  65  96 SE20G33   29.81R
PERU*          CLOUDY    66  62  89 S12       29.81F
$$

ILZ005-006-012>014-019>023-261800-
NORTHEAST ILLINOIS

CITY           SKY/WX    TMP DP  RH WIND       PRES   REMARKS
CHICAGO-OHARE  CLOUDY    72  65  78 S16G28    29.81F
CHICAGO-MIDWAY CLOUDY    76  66  71 SE18G24   29.82F
AURORA         HVY RAIN  69  66  90 S13       29.81S VSB 1/2
LANSING*       CLOUDY    74  63  69 S16G22    29.85F
JOLIET*        RAIN      72  68  86 S8G20     29.81F
WAUKEGAN       CLOUDY    61  59  93 SE13      29.82F FOG
DUPAGE AIRPORT RAIN      71  65  81 SE14G25   29.79F
KANKAKEE*      CLOUDY    71  68  89 S18G30    29.85F
WHEELING       CLOUDY    73  65  75 S16       29.83F
MORRIS*        HVY RAIN  69  67  92 S17G24    29.80S
ROMEOVILLE*    RAIN      72  65  79 S18G25    29.81F
NORTHERLY ISL    N/A     68  61  78 SE13        N/A
$$

LMZ740>746-261800-
SOUTHERN LAKE MICHIGAN

STATION/POSITION SKY/WX   TEMP    WIND        PRES    VSBY  WAVE
                          AIR SEA DIR/SP/G                  HT/PER
                          (F)     (DEG/KT/KT) (MB)    (MI)  (FT/S)
SOUTHERN BUOY              49 38  130/ 12/ 14 1011.9F         1/ 3
HARRISON CRIB              61     130/ 18/ 19   N/A
BURNHAM HARBOR             69     140/ 14/ 15   N/A
CALUMET HARBOR             72     150/  7/ 17   N/A
BURNS HARBOR               75     160/ 15/ 26 1011.9F
MICHIGAN CITY              73     140/ 15/ 19   N/A
MICHIGAN CITY 6N           68 52  180/ 16/ 21   N/A           2/ 2
ST. JOSEPH                 68 55  200/ 10/ 12   N/A           1/ 2
$$

ILZ025>027-034>036-040-047-049-050-058-095>099-261800-
WEST-CENTRAL ILLINOIS

CITY           SKY/WX    TMP DP  RH WIND       PRES   REMARKS
QUINCY         CLOUDY    71  63  75 SW20G29   29.83R
GALESBURG*     CLOUDY    72  64  76 S18G28    29.79R
MACOMB*        CLOUDY    72  64  75 SW12      29.82R
JACKSONVILLE*  CLOUDY    74  63  68 SW17      29.85R
PITTSFIELD*    CLOUDY    73  62  68 SW16G26   29.86R
$$

ILZ028>032-037-038-041>044-048-051>054-059>061-261800-
CENTRAL ILLINOIS

CITY           SKY/WX    TMP DP  RH WIND       PRES   REMARKS
PONTIAC        RAIN      66  65  96 S16       29.86R
BLOOMINGTON    LGT RAIN  66  64  93 S14       29.86F
DECATUR        CLOUDY    71  67  87 S15       29.87F
PEORIA         CLOUDY    73  64  73 SW14      29.82R
LACON*         PTSUNNY   70  64  79 S12G18    29.80S
LINCOLN*       PTSUNNY   73  64  73 S18G24    29.82S
SPRINGFIELD    CLOUDY    75  63  66 SW14G25   29.85R
TAYLORVILLE    PTSUNNY   73  66  78 SW17G23   29.87S
$$

ILZ033-039-045-046-055>057-062-063-261800-
EAST-CENTRAL ILLINOIS

CITY           SKY/WX    TMP DP  RH WIND       PRES   REMARKS
CHAMPAIGN      CLOUDY    76  65  68 S30G40    29.88R
DANVILLE*      LGT RAIN  70  67  91 S16G26    29.89R
RANTOUL*       CLOUDY    78  67  71 S26G35    29.87F
MATTOON        HVY RAIN  65  61  87 SW18G31   29.91R VSB 3/4
PARIS*         CLOUDY    75  67  76 S23G33    29.92F
$$

ILZ079-100>102-261800-
SOUTHWEST ILLINOIS

CITY           SKY/WX    TMP DP  RH WIND       PRES   REMARKS
ALTON          PTSUNNY   75  66  73 SW16G25   29.90R
BELLEVILLE     MOSUNNY   77  65  65 S16       29.90R
CAHOKIA*       PTSUNNY   76  59  55 SW15G24   29.91R
SPARTA*        CLOUDY    74  62  68 SW13G22   29.95R
$$

ILZ064>066-069>071-074>076-080>082-084>086-088>090-092>094-261800-
SOUTH-CENTRAL ILLINOIS

CITY           SKY/WX    TMP DP  RH WIND       PRES   REMARKS
CARBONDALE     PTSUNNY   76  63  64 SW20      29.97R
CAIRO*         CLOUDY    71  63  76 SW15G21   30.02S
EFFINGHAM*     CLOUDY    72  66  82 S12       29.93R
MARION         PTSUNNY   75  63  64 MISG      29.99R
MT. VERNON     PTSUNNY   77  63  61 S20G36    29.96R
CENTRALIA*     PTSUNNY   77  62  58 S20G28    29.93S
SALEM*         PTSUNNY   77  66  69 S15G23    29.93S
METROPOLIS*    PTSUNNY   75  65  73 SW10      30.01R
$$

ILZ067-068-072-073-078-083-087-091-261800-
SOUTHEAST ILLINOIS

CITY           SKY/WX    TMP DP  RH WIND       PRES   REMARKS
LAWRENCEVILLE  CLOUDY    77  65  66 S22G33    29.96S
FLORA*         CLOUDY    77  64  64 S21G29    29.94S
FAIRFIELD*     CLOUDY    77  65  66 S20G29    29.94S
HARRISBURG*    CLOUDY    77  63  61 S17G24    29.99S
ROBINSON*      CLOUDY    76  64  67 S16G31    29.96S
CARMI*         PTSUNNY   77  61  57 SW20      29.97S
$$

ABBREVIATIONS USED IN REMARKS
   TC - TEMPERATURE IN CELSIUS
  WCI - WIND CHILL INDEX
   HX - HEAT INDEX
  VSB - VISIBILITY
$$



USA.gov is the U.S. government's official web portal to all federal, state and local government web resources and services.